Fort Indiantown Gap, PA

8:53 PM EST on December 14, 2017 (GMT -0500)
Muir Army Air Field

Weather History for KMUI - January, 2013

Change the Weather History Date:

Sunday, January 27, 2013

  Actual Average Record
Temperature  
Mean Temperature 18 °F -  
Max Temperature 32 °F 34 °F 53 °F (2012)
Min Temperature 3 °F 22 °F 1 °F (2003)
Degree Days  
Heating Degree Days 48    
Moisture  
Dew Point 12 °F    
Average Humidity 68    
Maximum Humidity 97    
Minimum Humidity 44    
Precipitation  
Precipitation 0.00 in - - ()
Sea Level Pressure  
Sea Level Pressure 30.52 in    
Wind  
Wind Speed 3 mph (West)    
Max Wind Speed 9 mph    
Max Gust Speed -    
Visibility 10 miles    
Events      
Averages and records for this station are not official NWS values.
T = Trace of Precipitation, MM = Missing Value Source: NWS Daily Summary

Daily Weather History Graph

Daily Weather History Graph

Search for Another Location

Airport or City:

Trip Planner

Search our weather history database for the weather conditions in past years. The results will help you decide how hot, cold, wet, or windy it might be!

Date:

Astronomy

Jan. 27, 2013 Rise Set
Actual Time 7:19 AM EST 5:18 PM EST
Civil Twilight 6:50 AM EST 5:47 PM EST
Nautical Twilight 6:17 AM EST 6:20 PM EST
Astronomical Twilight 5:45 AM EST 6:53 PM EST
Moon 6:11 PM EST (1/27) 7:11 AM EST (1/27)
Length of Visible Light 10h 57m
Length of Day
9h 58m
Full, 100% of the Moon is Illuminated
Jan 27
Full
Feb 3
Last Quarter
Feb 10
New
Feb 17
First Quarter
Feb 25
Full

Hourly Weather History & Observations

Time (EST) Temp. Windchill Dew Point Humidity Pressure Visibility Wind Dir Wind Speed Gust Speed Precip Events Conditions
12:55 AM 7.5 °F - 6.8 °F 97% 30.45 in 10.0 mi Calm Calm - N/A   Clear
1:55 AM 3.4 °F - 1.2 °F 91% 30.47 in 10.0 mi Calm Calm - N/A   Clear
2:55 AM 4.1 °F - 1.8 °F 90% 30.49 in 10.0 mi Calm Calm - N/A   Clear
3:55 AM 16.7 °F 9.6 °F 11.7 °F 81% 30.48 in 10.0 mi NNW 4.6 mph - N/A   Clear
4:55 AM 21.7 °F 11.5 °F 11.7 °F 65% 30.50 in 10.0 mi West 9.2 mph - N/A   Clear
5:55 AM 21.2 °F 12.6 °F 11.5 °F 66% 30.51 in 10.0 mi WNW 6.9 mph - N/A   Clear
6:55 AM 11.5 °F - 7.3 °F 83% 30.53 in 10.0 mi Calm Calm - N/A   Clear
7:55 AM 16.7 °F 7.2 °F 10.4 °F 76% 30.56 in 10.0 mi West 6.9 mph - N/A   Clear
8:55 AM 23.0 °F 14.7 °F 13.1 °F 66% 30.58 in 10.0 mi West 6.9 mph - N/A   Clear
9:55 AM 25.5 °F 16.2 °F 12.9 °F 59% 30.58 in 10.0 mi West 9.2 mph - N/A   Clear
10:55 AM 29.1 °F 24.1 °F 12.2 °F 49% 30.59 in 10.0 mi Variable 4.6 mph - N/A   Clear
11:55 AM 31.6 °F 27.0 °F 11.8 °F 44% 30.56 in 10.0 mi Variable 4.6 mph - N/A   Clear
12:55 PM 30.2 °F - 13.1 °F 49% 30.54 in 10.0 mi Calm Calm - N/A   Clear
1:55 PM 31.6 °F - 11.7 °F 44% 30.51 in 10.0 mi Calm Calm - N/A   Clear
2:55 PM 32.7 °F 26.4 °F 13.1 °F 44% 30.51 in 10.0 mi SW 6.9 mph - N/A   Clear
3:55 PM 32.5 °F 25.5 °F 12.9 °F 44% 30.51 in 10.0 mi West 8.1 mph - N/A   Clear
4:55 PM 31.5 °F 28.1 °F 11.7 °F 44% 30.51 in 10.0 mi WNW 3.5 mph - N/A   Clear
5:55 PM 27.7 °F - 14.0 °F 57% 30.52 in 10.0 mi Calm Calm - N/A   Clear
6:55 PM 26.6 °F - 13.8 °F 59% 30.53 in 10.0 mi Calm Calm - N/A   Clear
7:55 PM 22.8 °F - 15.6 °F 74% 30.52 in 10.0 mi Calm Calm - N/A   Clear
8:55 PM 19.9 °F - 15.8 °F 84% 30.52 in 10.0 mi Calm Calm - N/A   Scattered Clouds
9:55 PM 18.5 °F - 15.6 °F 89% 30.50 in 10.0 mi Calm Calm - N/A   Clear
10:55 PM 20.3 °F - 16.3 °F 85% 30.51 in 10.0 mi Calm Calm - N/A   Clear
11:55 PM 21.2 °F - 16.9 °F 83% 30.50 in 10.0 mi Calm Calm - N/A   Clear